SCP
0 0 0 0 0 0 0 0 0 0 0 0 0 0 0 0 0 0 0 0 0 0 0 0 0 -0 -0 -0 0 0 0 0 -0 -0 -0 -0 -0 -0 -0 -0 -0 0 0 0
0 0 0 0 0 0 0 0 0 0 0 0 0 0 0 0 0 0 0 0 0 0 0 -0 -0 -0 0 0 0 0 -0 -0 -0 -0 -0 -0 -0 -0 -0 -0 -0 0 -0 -0
0 0 0 0 0 0 0 0 0 0 0 0 0 0 0 0 0 0 0 0 0 0 0 0 0 0 0 0 0 -0 -0 -0 -0 -0 -0 -0 -0 0 0 -0 0 -0 0 0
0 0 0 0 0 0 0 0 0 0 0 0 0 0 0 0 0 0 0 0 0 0 0 0 0 0 0 0 -0 -0 -0 -0 -0 -0 0 0 0 0 -0 -0 -0 -0 0 -0
0 0 0 0 0 0 0 0 0 0 0 0 0 0 0 0 0 0 0 0 0 0 0 0 0 0 -0 -0 -0 -0 -0 -0 0 0 0 0 0 0 0 0 0 0 0 0
0 0 0 0 0 0 0 0 0 0 0 0 0 0 0 0 0 0 0 0 0 0 0 0 0 -0 -0 -0 -0 -0 0 0 0 0 0 0 0 0 0 0 0 0 0 0
0 0 0 0 0 0 0 0 0 0 0 0 0 0 0 0 0 0 0 0 0 0 0 0 -0 -0 -0 -0 0 0 0 0 0 0 0 0 0 0 0 0 0 0 0 0
0 0 0 0 0 0 0 0 0 0 0 0 0 0 0 0 0 0 0 0 0 0 0 -0 -0 0 0 0 0 0 0 0 0 0 0 0 0 0 0 0 0 0 0 0
0 0 0 0 0 0 0 0 0 0 0 0 0 0 0 0 0 0 0 0 0 0 -0 -0 0 0 0 0 0 0 0 0 0 0 0 0 0 0 0 0 0 0 0 0
0 0 0 0 0 0 0 0 0 0 0 0 0 0 0 0 0 0 0 0 -0 -0 -0 -0 0 0 0 0 0 0 0 0 0 0 0 0 0 0 0 0 0 0 0 0
0 0 0 0 0 0 0 0 0 0 0 0 0 0 0 0 0 0 0 0 -0 -0 -0 0 0 0 0 0 0 0 0 0 0 0 0 0 0 0 0 0 0 0 0 0
0 0 0 0 0 0 0 0 0 0 0 0 0 0 0 0 0 0 0 -0 -0 -0 -0 0 0 0 0 0 0 0 0 0 0 0 0 0 0 0 0 0 0 0 0 0
0 0 0 0 0 0 0 0 0 0 0 0 0 0 0 0 -0 -0 0 0 -0 -0 0 0 0 0 0 0 0 0 0 0 0 0 0 0 0 0 0 0 0 0 0 0
0 0 0 0 0 0 0 0 0 0 0 -0 0 0 0 -0 -0 -0 -0 -0 -0 -0 0 0 0 0 0 0 0 0 0 0 0 0 0 0 0 0 0 0 0 0 0 0
0 0 0 0 0 0 0 0 0 -0 -0 -0 0 0 -0 0 -0 -0 -0 -0 -0 -0 0 0 0 0 0 0 0 0 0 0 0 0 0 0 0 0 0 0 0 0 0 0
0 0 0 0 0 0 0 0 -0 0 -0 -0 -0 0 -0 0 0 -0 -0 -0 -0 0 0 0 0 0 0 0 0 -0 0 0 0 0 0 0 0 0 0 0 0 0 0 0
0 0 0 0 0 0 0 -0 0 0 -0 -0 -0 0 0 -0 0 -0 -0 -0 -0 0 0 0 0 0 0 -0 0 0 0 0 0 0 0 0 0 0 0 0 0 0 0 0
0 0 0 0 0 0 0 -0 0 0 -0 0 -0 -0 -0 0 0 -0 -0 -0 0 0 0 0 0 0 0 0 0 0 0 0 0 0 0 0 0 0 0 0 0 0 0 0
0 0 0 0 0 0 0 0 0 -0 -0 -0 -0 -0 -0 -0 -0 -0 -0 -0 0 0 -0 -0 -0 0 0 0 0 0 0 0 0 0 0 0 0 0 0 0 0 0 0 0
0 0 0 0 0 0 0 0 0 -0 -0 -0 -0 -0 -0 0 -0 -0 -0 -0 -0 0 -0 -0 0 0 0 0 0 0 0 0 0 0 0 0 0 0 0 0 0 0 0 0
0 0 0 0 0 0 -0 -0 -0 0 0 -0 -0 0 0 -0 0 -0 -0 0 -0 -0 -0 0 0 0 0 0 0 0 0 0 0 0 0 0 0 0 0 0 0 0 0 0
0 0 0 0 0 0 -0 -0 -0 0 0 -0 -0 0 0 -0 -0 0 -0 0 0 -0 0 0 0 0 0 0 0 0 0 0 0 0 0 0 0 0 0 0 0 0 0 0
0 0 0 0 0 -0 -0 -0 -0 -0 0 0 -0 0 0 0 -0 -0 -0 0 0 0 0 0 0 0 0 0 0 0 0 0 0 0 0 0 0 0 0 0 0 0 0 0
0 0 0 0 0 -0 -0 -0 -0 -0 0 0 -0 0 0 0 -0 -0 0 0 -0 0 0 0 0 0 0 0 0 0 0 0 0 0 0 0 0 0 0 0 0 0 0 0
0 0 0 0 0 -0 -0 -0 -0 -0 -0 0 0 0 0 0 -0 0 0 0 0 0 0 0 0 0 0 0 0 0 0 0 0 0 0 0 0 0 0 0 0 0 0 0
0 0 0 0 0 -0 -0 -0 -0 -0 -0 0 0 0 0 -0 -0 -0 0 0 0 0 0 0 0 0 0 0 0 0 0 0 0 0 0 0 0 0 0 0 0 0 0 0
0 0 0 0 0 -0 -0 -0 -0 -0 -0 -0 0 0 0 -0 -0 -0 -0 0 0 0 0 0 0 0 0 0 0 0 0 0 0 0 0 0 0 0 0 0 0 0 0 0
Wind_Speed_500mb
10 5 5 6 7 11 3 4 6 30 36 25 39 54 72 80 83 82 79 82 88 91 95 98 98 98 96 97 95 93 91 89 80 84 83 82 71 71 72 73 72 68 65 58
7 4 11 12 12 9 18 20 17 20 25 57 60 67 74 83 85 78 82 92 95 98 101 99 98 99 101 96 97 95 85 84 88 84 79 74 73 74 71 69 67 65 61 57
7 12 5 7 13 10 20 19 10 15 33 57 61 70 79 85 81 77 89 95 96 99 98 98 102 101 99 101 96 88 91 83 79 73 75 74 71 64 65 63 65 52 58 50
5 12 4 9 14 11 22 22 2 29 39 52 63 71 79 69 69 88 97 99 101 99 104 105 107 102 101 96 97 91 85 79 76 68 69 63 63 59 58 55 43 47 45 45
4 3 8 9 13 13 24 31 15 42 63 72 79 76 62 78 97 96 94 95 93 98 101 102 102 110 107 95 88 81 75 70 65 62 59 59 58 52 49 36 39 47 44 2
6 4 4 9 12 41 25 8 40 60 59 68 78 31 46 106 106 100 96 92 99 103 99 102 114 108 98 88 74 71 67 63 60 55 51 53 45 50 43 32 50 62 90 90
2 4 11 9 20 38 12 14 74 68 68 68 43 59 90 97 94 92 89 93 100 99 98 102 108 100 89 77 74 64 63 55 52 49 51 44 42 56 47 64 79 94 97 95
3 5 6 20 20 6 24 51 59 68 75 75 78 84 85 85 89 91 94 100 100 103 109 109 104 93 77 70 69 63 56 54 50 52 40 38 48 45 57 75 89 99 105 104
12 9 13 29 36 40 55 61 65 73 79 80 78 78 80 86 89 91 91 95 95 104 105 110 99 80 76 64 63 59 56 54 56 47 44 35 37 40 57 77 86 94 106 106
6 6 21 49 35 56 58 65 69 69 70 68 72 81 83 85 89 91 90 96 97 106 107 108 93 78 64 59 60 56 56 54 45 40 42 43 36 41 61 74 81 89 98 98
7 13 37 4 54 60 63 63 65 61 62 67 74 80 81 86 89 88 88 93 97 97 101 96 86 77 65 61 56 57 50 43 48 55 44 46 43 39 50 68 82 92 94 97
8 18 18 44 49 48 57 61 57 59 65 68 73 78 79 84 85 83 89 93 99 97 97 86 80 72 65 58 57 50 37 38 39 47 46 49 54 64 60 68 74 78 81 82
8 28 35 41 46 44 51 52 51 57 57 69 76 75 76 82 86 83 87 89 95 95 90 77 71 60 58 60 50 40 40 35 32 43 52 60 65 68 78 70 70 71 74 77
16 33 48 38 52 40 42 46 52 55 59 66 73 74 76 81 87 86 91 93 91 87 81 73 65 57 53 53 45 39 40 31 32 45 55 60 64 70 71 74 77 73 69 72
29 33 37 38 27 33 38 47 54 59 64 71 74 74 78 84 85 84 92 90 88 85 76 69 62 53 46 48 36 38 36 29 33 45 55 62 65 69 70 72 75 74 68 66
34 36 37 19 30 33 40 47 53 62 66 70 73 75 78 79 78 83 91 86 88 88 77 69 55 47 37 41 31 33 28 26 27 40 55 62 62 65 65 66 70 67 64 62
39 44 28 24 32 37 37 44 48 56 63 67 70 75 76 76 74 85 91 83 83 82 70 61 47 35 35 35 15 26 18 22 22 34 50 56 58 60 59 60 65 64 61 55
28 27 13 21 29 34 37 40 46 56 60 63 68 72 74 72 74 85 89 84 86 83 69 53 36 31 31 20 11 18 15 21 20 29 46 50 54 56 54 57 59 60 60 57
19 11 13 19 23 29 33 40 46 48 55 59 64 71 67 65 68 82 84 82 87 89 75 50 34 28 26 18 14 15 16 19 24 32 47 47 51 53 50 52 54 57 57 58
11 17 18 22 24 29 35 37 41 49 52 52 62 67 68 65 67 82 83 80 78 77 60 40 29 25 18 8 8 12 14 18 27 36 49 47 49 52 49 50 53 54 56 56
13 17 20 23 28 30 33 36 41 48 49 54 62 65 64 63 63 81 88 88 80 73 57 38 28 26 11 3 7 12 15 22 31 40 49 48 49 50 49 50 52 52 55 55
14 19 21 25 30 32 33 34 36 43 52 56 61 61 62 61 63 76 78 76 75 68 56 42 29 23 10 5 10 15 19 25 32 41 49 46 46 47 48 49 50 52 52 52
13 18 21 25 29 31 29 29 34 41 49 55 60 61 61 58 58 70 86 82 73 61 52 42 22 15 15 14 16 19 23 27 37 45 44 43 43 44 44 47 48 50 51 50
13 16 22 23 23 24 27 31 34 39 44 49 53 56 61 66 56 57 72 77 70 62 53 41 23 17 20 20 24 22 25 34 43 43 40 39 40 42 43 44 46 48 49 49
15 16 20 20 19 21 22 26 31 37 43 48 52 53 55 55 56 57 69 78 73 66 59 46 33 24 31 28 26 29 34 38 36 33 32 34 37 40 41 41 43 45 46 46
16 16 18 21 20 20 20 23 30 36 43 47 49 53 54 55 56 54 59 72 74 70 63 53 42 33 36 40 36 34 32 31 28 25 26 30 35 37 40 40 42 42 44 44
17 16 16 18 17 17 17 21 25 31 39 43 45 49 52 55 56 56 55 64 76 75 67 57 47 38 35 38 37 35 31 29 26 25 27 30 33 35 38 38 39 40 42 43
Wind_Direction_500mb
276 356 25 309 37 18 30 286 153 300 307 317 319 323 320 319 320 321 320 323 323 322 322 321 321 321 320 317 317 316 315 314 311 309 308 314 317 312 311 306 306 303 301 298
300 21 7 87 42 8 348 313 275 308 312 321 322 327 329 325 321 319 322 322 323 322 320 319 319 319 318 319 318 318 316 313 314 314 319 317 318 315 315 313 312 311 304 298
282 341 336 28 354 326 291 303 301 341 322 320 323 331 325 319 313 315 319 320 321 321 321 321 321 320 319 319 319 317 317 316 319 317 323 322 324 322 321 317 317 313 297 286
268 338 41 246 7 269 316 316 36 328 326 318 315 318 316 325 320 322 322 323 323 324 323 323 322 321 320 319 321 325 325 322 322 328 327 327 329 326 326 327 321 316 306 276
93 220 286 343 334 320 316 313 354 336 321 326 326 326 322 331 330 325 324 323 324 324 324 323 323 325 327 326 328 326 329 329 332 339 335 332 332 339 348 349 357 4 23 226
52 82 262 224 285 334 321 280 344 325 319 323 331 332 322 327 328 327 328 329 328 328 327 326 331 335 332 334 338 340 340 341 340 338 335 338 354 0 22 48 49 55 85 95
167 218 279 241 341 347 24 295 319 319 317 323 320 313 313 322 327 328 329 330 332 333 332 333 335 339 343 345 350 355 354 349 345 346 349 5 23 50 73 84 78 80 85 93
80 54 317 359 358 62 297 310 314 319 318 317 320 323 326 328 331 331 332 335 337 335 338 341 347 351 354 353 356 0 355 355 1 5 13 44 61 77 82 82 84 83 88 87
170 227 313 339 328 338 337 326 322 320 328 328 326 330 331 332 334 333 334 336 337 340 340 349 356 3 2 359 359 359 359 8 22 49 38 62 64 76 89 87 86 87 89 87
44 283 316 323 345 337 336 332 333 334 335 338 334 337 336 337 337 335 337 339 339 343 345 349 359 9 13 4 1 7 12 28 42 55 61 72 73 73 91 91 90 93 94 93
259 299 329 314 334 336 333 337 338 339 341 341 341 342 343 341 341 337 337 341 343 344 348 353 1 11 13 10 9 14 28 34 65 74 65 76 72 67 95 97 105 106 105 107
235 314 303 312 329 332 333 337 343 340 343 343 347 346 348 346 344 338 340 343 346 350 356 358 5 8 13 12 14 22 41 43 53 77 72 78 84 84 86 99 102 105 107 108
289 319 317 321 330 336 335 342 342 341 348 345 347 349 352 349 346 345 348 347 349 353 357 359 6 9 11 17 21 31 31 41 70 81 88 93 97 99 95 94 102 102 104 106
337 328 322 326 326 334 339 341 339 344 348 349 348 351 353 351 352 355 352 350 352 357 359 0 6 8 11 18 22 34 37 49 84 98 103 103 105 104 104 104 101 96 102 108
331 332 321 319 327 340 346 346 345 348 349 349 350 352 354 352 352 355 357 356 358 359 359 1 2 6 12 18 18 32 38 67 84 103 109 111 113 111 110 111 110 110 112 111
333 334 341 347 343 350 352 351 348 345 350 348 352 352 353 353 355 357 360 360 357 353 360 359 360 3 12 17 15 36 49 62 80 103 115 121 119 114 114 116 115 114 111 110
332 339 348 350 345 350 352 355 348 345 348 347 352 353 354 355 356 359 1 3 359 356 2 359 360 9 25 8 35 40 65 84 92 111 126 127 121 114 116 118 116 114 112 114
331 331 337 332 340 344 351 347 348 347 348 348 352 356 357 358 359 0 2 4 1 2 5 3 1 3 16 29 60 33 85 95 110 118 134 130 121 119 123 123 120 119 119 122
351 11 346 346 341 346 348 347 348 349 348 349 353 358 360 2 0 4 3 7 6 3 359 3 6 15 34 29 29 73 109 118 126 128 141 135 126 124 127 124 122 121 122 123
3 3 355 354 353 349 354 349 353 351 350 354 356 0 2 4 4 5 6 6 8 4 360 9 21 31 48 23 63 101 123 130 136 142 146 136 131 129 129 128 125 125 125 125
1 4 0 355 355 356 358 354 1 6 2 1 1 3 4 2 7 9 8 7 8 8 9 17 34 38 81 79 109 126 132 137 141 149 149 140 136 134 134 132 129 130 129 128
349 356 351 346 344 354 359 357 4 5 5 3 3 5 9 5 7 13 14 10 8 11 14 18 37 43 74 116 124 132 138 140 146 151 149 142 139 138 137 135 133 133 132 130
339 346 344 336 341 350 353 356 8 4 3 4 4 6 9 12 15 8 8 14 14 16 20 24 38 70 83 127 131 133 138 143 144 149 147 143 141 140 140 137 137 136 134 133
317 337 339 337 340 342 359 359 5 5 5 6 9 12 9 8 19 19 16 16 18 23 31 36 51 88 105 116 125 128 134 142 146 147 145 144 143 143 142 142 140 139 137 137
310 328 325 332 342 347 359 353 358 0 7 9 12 14 17 18 19 19 19 18 22 27 36 46 62 90 103 104 108 114 120 128 137 141 144 144 146 146 146 146 144 142 141 140
313 305 314 329 337 345 351 352 358 357 3 8 10 14 19 20 23 26 28 21 25 31 39 48 62 87 100 101 101 109 116 123 131 140 143 147 148 148 150 149 147 146 145 144
307 294 309 318 327 335 341 347 349 356 1 6 8 11 17 21 24 28 31 27 28 32 38 48 58 71 87 96 99 105 110 113 121 130 137 143 145 150 153 151 150 150 150 151
Wind_Speed_850mb
10 5 5 6 7 11 3 4 6 30 36 25 39 54 72 80 83 82 79 82 88 91 95 98 98 98 96 97 95 93 91 89 80 84 83 82 71 71 72 73 72 68 65 58
7 4 11 12 12 9 18 20 17 20 25 57 60 67 74 83 85 78 82 92 95 98 101 99 98 99 101 96 97 95 85 84 88 84 79 74 73 74 71 69 67 65 61 57
7 12 5 7 13 10 20 19 10 15 33 57 61 70 79 85 81 77 89 95 96 99 98 98 102 101 99 101 96 88 91 83 79 73 75 74 71 64 65 63 65 52 58 50
5 12 4 9 14 11 22 22 2 29 39 52 63 71 79 69 69 88 97 99 101 99 104 105 107 102 101 96 97 91 85 79 76 68 69 63 63 59 58 55 43 47 45 45
4 3 8 9 13 13 24 31 15 42 63 72 79 76 62 78 97 96 94 95 93 98 101 102 102 110 107 95 88 81 75 70 65 62 59 59 58 52 49 36 39 47 44 2
6 4 4 9 12 41 25 8 40 60 59 68 78 31 46 106 106 100 96 92 99 103 99 102 114 108 98 88 74 71 67 63 60 55 51 53 45 50 43 32 50 62 90 90
2 4 11 9 20 38 12 14 74 68 68 68 43 59 90 97 94 92 89 93 100 99 98 102 108 100 89 77 74 64 63 55 52 49 51 44 42 56 47 64 79 94 97 95
3 5 6 20 20 6 24 51 59 68 75 75 78 84 85 85 89 91 94 100 100 103 109 109 104 93 77 70 69 63 56 54 50 52 40 38 48 45 57 75 89 99 105 104
12 9 13 29 36 40 55 61 65 73 79 80 78 78 80 86 89 91 91 95 95 104 105 110 99 80 76 64 63 59 56 54 56 47 44 35 37 40 57 77 86 94 106 106
6 6 21 49 35 56 58 65 69 69 70 68 72 81 83 85 89 91 90 96 97 106 107 108 93 78 64 59 60 56 56 54 45 40 42 43 36 41 61 74 81 89 98 98
7 13 37 4 54 60 63 63 65 61 62 67 74 80 81 86 89 88 88 93 97 97 101 96 86 77 65 61 56 57 50 43 48 55 44 46 43 39 50 68 82 92 94 97
8 18 18 44 49 48 57 61 57 59 65 68 73 78 79 84 85 83 89 93 99 97 97 86 80 72 65 58 57 50 37 38 39 47 46 49 54 64 60 68 74 78 81 82
8 28 35 41 46 44 51 52 51 57 57 69 76 75 76 82 86 83 87 89 95 95 90 77 71 60 58 60 50 40 40 35 32 43 52 60 65 68 78 70 70 71 74 77
16 33 48 38 52 40 42 46 52 55 59 66 73 74 76 81 87 86 91 93 91 87 81 73 65 57 53 53 45 39 40 31 32 45 55 60 64 70 71 74 77 73 69 72
29 33 37 38 27 33 38 47 54 59 64 71 74 74 78 84 85 84 92 90 88 85 76 69 62 53 46 48 36 38 36 29 33 45 55 62 65 69 70 72 75 74 68 66
34 36 37 19 30 33 40 47 53 62 66 70 73 75 78 79 78 83 91 86 88 88 77 69 55 47 37 41 31 33 28 26 27 40 55 62 62 65 65 66 70 67 64 62
39 44 28 24 32 37 37 44 48 56 63 67 70 75 76 76 74 85 91 83 83 82 70 61 47 35 35 35 15 26 18 22 22 34 50 56 58 60 59 60 65 64 61 55
28 27 13 21 29 34 37 40 46 56 60 63 68 72 74 72 74 85 89 84 86 83 69 53 36 31 31 20 11 18 15 21 20 29 46 50 54 56 54 57 59 60 60 57
19 11 13 19 23 29 33 40 46 48 55 59 64 71 67 65 68 82 84 82 87 89 75 50 34 28 26 18 14 15 16 19 24 32 47 47 51 53 50 52 54 57 57 58
11 17 18 22 24 29 35 37 41 49 52 52 62 67 68 65 67 82 83 80 78 77 60 40 29 25 18 8 8 12 14 18 27 36 49 47 49 52 49 50 53 54 56 56
13 17 20 23 28 30 33 36 41 48 49 54 62 65 64 63 63 81 88 88 80 73 57 38 28 26 11 3 7 12 15 22 31 40 49 48 49 50 49 50 52 52 55 55
14 19 21 25 30 32 33 34 36 43 52 56 61 61 62 61 63 76 78 76 75 68 56 42 29 23 10 5 10 15 19 25 32 41 49 46 46 47 48 49 50 52 52 52
13 18 21 25 29 31 29 29 34 41 49 55 60 61 61 58 58 70 86 82 73 61 52 42 22 15 15 14 16 19 23 27 37 45 44 43 43 44 44 47 48 50 51 50
13 16 22 23 23 24 27 31 34 39 44 49 53 56 61 66 56 57 72 77 70 62 53 41 23 17 20 20 24 22 25 34 43 43 40 39 40 42 43 44 46 48 49 49
15 16 20 20 19 21 22 26 31 37 43 48 52 53 55 55 56 57 69 78 73 66 59 46 33 24 31 28 26 29 34 38 36 33 32 34 37 40 41 41 43 45 46 46
16 16 18 21 20 20 20 23 30 36 43 47 49 53 54 55 56 54 59 72 74 70 63 53 42 33 36 40 36 34 32 31 28 25 26 30 35 37 40 40 42 42 44 44
17 16 16 18 17 17 17 21 25 31 39 43 45 49 52 55 56 56 55 64 76 75 67 57 47 38 35 38 37 35 31 29 26 25 27 30 33 35 38 38 39 40 42 43
Wind_Direction_850mb
276 356 25 309 37 18 30 286 153 300 307 317 319 323 320 319 320 321 320 323 323 322 322 321 321 321 320 317 317 316 315 314 311 309 308 314 317 312 311 306 306 303 301 298
300 21 7 87 42 8 348 313 275 308 312 321 322 327 329 325 321 319 322 322 323 322 320 319 319 319 318 319 318 318 316 313 314 314 319 317 318 315 315 313 312 311 304 298
282 341 336 28 354 326 291 303 301 341 322 320 323 331 325 319 313 315 319 320 321 321 321 321 321 320 319 319 319 317 317 316 319 317 323 322 324 322 321 317 317 313 297 286
268 338 41 246 7 269 316 316 36 328 326 318 315 318 316 325 320 322 322 323 323 324 323 323 322 321 320 319 321 325 325 322 322 328 327 327 329 326 326 327 321 316 306 276
93 220 286 343 334 320 316 313 354 336 321 326 326 326 322 331 330 325 324 323 324 324 324 323 323 325 327 326 328 326 329 329 332 339 335 332 332 339 348 349 357 4 23 226
52 82 262 224 285 334 321 280 344 325 319 323 331 332 322 327 328 327 328 329 328 328 327 326 331 335 332 334 338 340 340 341 340 338 335 338 354 0 22 48 49 55 85 95
167 218 279 241 341 347 24 295 319 319 317 323 320 313 313 322 327 328 329 330 332 333 332 333 335 339 343 345 350 355 354 349 345 346 349 5 23 50 73 84 78 80 85 93
80 54 317 359 358 62 297 310 314 319 318 317 320 323 326 328 331 331 332 335 337 335 338 341 347 351 354 353 356 0 355 355 1 5 13 44 61 77 82 82 84 83 88 87
170 227 313 339 328 338 337 326 322 320 328 328 326 330 331 332 334 333 334 336 337 340 340 349 356 3 2 359 359 359 359 8 22 49 38 62 64 76 89 87 86 87 89 87
44 283 316 323 345 337 336 332 333 334 335 338 334 337 336 337 337 335 337 339 339 343 345 349 359 9 13 4 1 7 12 28 42 55 61 72 73 73 91 91 90 93 94 93
259 299 329 314 334 336 333 337 338 339 341 341 341 342 343 341 341 337 337 341 343 344 348 353 1 11 13 10 9 14 28 34 65 74 65 76 72 67 95 97 105 106 105 107
235 314 303 312 329 332 333 337 343 340 343 343 347 346 348 346 344 338 340 343 346 350 356 358 5 8 13 12 14 22 41 43 53 77 72 78 84 84 86 99 102 105 107 108
289 319 317 321 330 336 335 342 342 341 348 345 347 349 352 349 346 345 348 347 349 353 357 359 6 9 11 17 21 31 31 41 70 81 88 93 97 99 95 94 102 102 104 106
337 328 322 326 326 334 339 341 339 344 348 349 348 351 353 351 352 355 352 350 352 357 359 0 6 8 11 18 22 34 37 49 84 98 103 103 105 104 104 104 101 96 102 108
331 332 321 319 327 340 346 346 345 348 349 349 350 352 354 352 352 355 357 356 358 359 359 1 2 6 12 18 18 32 38 67 84 103 109 111 113 111 110 111 110 110 112 111
333 334 341 347 343 350 352 351 348 345 350 348 352 352 353 353 355 357 360 360 357 353 360 359 360 3 12 17 15 36 49 62 80 103 115 121 119 114 114 116 115 114 111 110
332 339 348 350 345 350 352 355 348 345 348 347 352 353 354 355 356 359 1 3 359 356 2 359 360 9 25 8 35 40 65 84 92 111 126 127 121 114 116 118 116 114 112 114
331 331 337 332 340 344 351 347 348 347 348 348 352 356 357 358 359 0 2 4 1 2 5 3 1 3 16 29 60 33 85 95 110 118 134 130 121 119 123 123 120 119 119 122
351 11 346 346 341 346 348 347 348 349 348 349 353 358 360 2 0 4 3 7 6 3 359 3 6 15 34 29 29 73 109 118 126 128 141 135 126 124 127 124 122 121 122 123
3 3 355 354 353 349 354 349 353 351 350 354 356 0 2 4 4 5 6 6 8 4 360 9 21 31 48 23 63 101 123 130 136 142 146 136 131 129 129 128 125 125 125 125
1 4 0 355 355 356 358 354 1 6 2 1 1 3 4 2 7 9 8 7 8 8 9 17 34 38 81 79 109 126 132 137 141 149 149 140 136 134 134 132 129 130 129 128
349 356 351 346 344 354 359 357 4 5 5 3 3 5 9 5 7 13 14 10 8 11 14 18 37 43 74 116 124 132 138 140 146 151 149 142 139 138 137 135 133 133 132 130
339 346 344 336 341 350 353 356 8 4 3 4 4 6 9 12 15 8 8 14 14 16 20 24 38 70 83 127 131 133 138 143 144 149 147 143 141 140 140 137 137 136 134 133
317 337 339 337 340 342 359 359 5 5 5 6 9 12 9 8 19 19 16 16 18 23 31 36 51 88 105 116 125 128 134 142 146 147 145 144 143 143 142 142 140 139 137 137
310 328 325 332 342 347 359 353 358 0 7 9 12 14 17 18 19 19 19 18 22 27 36 46 62 90 103 104 108 114 120 128 137 141 144 144 146 146 146 146 144 142 141 140
313 305 314 329 337 345 351 352 358 357 3 8 10 14 19 20 23 26 28 21 25 31 39 48 62 87 100 101 101 109 116 123 131 140 143 147 148 148 150 149 147 146 145 144
307 294 309 318 327 335 341 347 349 356 1 6 8 11 17 21 24 28 31 27 28 32 38 48 58 71 87 96 99 105 110 113 121 130 137 143 145 150 153 151 150 150 150 151